Regional Weather Roundup
Issued by NWS

Home | Current Version | Previous Version | Graphics & Text | Print | Product List | Glossary On
Versions: 1 2 3 4 5 6 7 8 9 10 11 12 13 14 15 16 17 18 19 20 21 22 23 24 25 26 27 28 29 30 31 32 33 34 35 36 37 38 39 40 41 42 43 44 45 46 47 48 49 50
000
ASUS43 KMKX 252121
RWRWI

WISCONSIN REGIONAL WEATHER ROUNDUP
NATIONAL WEATHER SERVICE MILWAUKEE/SULLIVAN WI
400 PM CDT MON JUL 25 2016

NOTE: "FAIR" INDICATES FEW OR NO CLOUDS BELOW 12,000 FEET WITH NO
SIGNIFICANT WEATHER AND/OR OBSTRUCTIONS TO VISIBILITY.

WIZ001-002-006>008-014>016-023>028-252200-
NORTHWEST WISCONSIN

CITY           SKY/WX    TMP DP  RH WIND       PRES   REMARKS
SUPERIOR ARPT  MOSUNNY   85  61  45 W13       29.98F HX  85
ASHLAND        SUNNY     83  59  44 W8        30.00F HX  83
HAYWARD        MOSUNNY   81  58  45 MISG      30.03S HX  81
SIREN          PTSUNNY   82  57  42 NW6       30.03  HX  82
CUMBERLAND     MOSUNNY   79  57  47 W7        30.04F HX  80
RICE LAKE      MOSUNNY   81  62  52 W7        30.04F HX  82
CHETEK         MOSUNNY   82  63  52 NW6       30.03F HX  83
LADYSMITH      MOSUNNY   81  61  49 W6        30.04F HX  82
EAU CLAIRE     MOSUNNY   82  60  47 NW8       30.02F HX  82
MENOMONIE      SUNNY     85  60  41 NW8       30.03F HX  85
NEW RICHMOND   SUNNY     84  59  42 NW8       30.04F HX  83
OSCEOLA        SUNNY     84  61  45 NW6       30.06S HX  84
$$

WIZ003>005-009-010-017-018-252200-
NORTH CENTRAL WISCONSIN

CITY           SKY/WX    TMP DP  RH WIND       PRES   REMARKS
MANITOWISH WTR MOSUNNY   79  57  47 NW9G16    30.02S HX  80
ARBOR VITAE    SUNNY     80  57  45 NW10      30.02F HX  80
WOODRUFF       SUNNY     80  57  45 NW10      30.02F HX  80
RHINELANDER    MOSUNNY   81  57  43 NW8       30.02F HX  81
EAGLE RIVER    SUNNY     78  53  41 NW15      30.01S
LAND O LAKES   MOSUNNY   80  54  40 NW10G17   30.02S HX  80
PHILLIPS       MOSUNNY   79  58  49 NW8       30.02F HX  80
TOMAHAWK       MOSUNNY   78  57  48 W8        30.03F
MEDFORD        SUNNY     79  59  51 NW10G17   30.03S HX  80
MERRILL        MOSUNNY   81  60  48 NW9G18    30.01F HX  81
$$

WIZ029-030-035-036-043>047-252200-
CENTRAL WISCONSIN

CITY           SKY/WX    TMP DP  RH WIND       PRES   REMARKS
WAUSAU         MOSUNNY   81  57  43 NW10      29.99F HX  81
MOSINEE        MOSUNNY   81  57  44 NW13      30.02F HX  81
MARSHFIELD     SUNNY     83  60  45 NW15G21   30.02F HX  83
STEVENS POINT  SUNNY     80  58  46 W12       30.01F HX  80
WAUPACA        MOSUNNY   86  59  39 NW12G17   29.99S HX  85
WAUTOMA        MOSUNNY   84  62  47 W13       30.00  HX  85
WISC RAPIDS    SUNNY     84  57  39 NW14      30.02S HX  83
CAMP DOUGLAS   MOSUNNY   82  64  54 W8        30.02S HX  84
$$

WIZ011>013-019>022-031-037>040-048>050-252200-
NORTHEAST WISCONSIN

CITY           SKY/WX    TMP DP  RH WIND       PRES   REMARKS
ANTIGO         MOSUNNY   79  59  50 NW8       30.02S HX  80
SHAWANO        MOSUNNY   85  59  41 W9        29.98R HX  84
OCONTO         SUNNY     84  61  45 NW7       29.94S HX  84
STURGEON BAY   SUNNY     83  61  47 NW7       29.96S HX  83
GREEN BAY      SUNNY     83  64  52 NW9       29.96F HX  84
MANITOWOC      PTSUNNY   84  63  49 W10       29.97S HX  85
APPLETON       PTSUNNY   82  57  42 NW12G17   29.97F HX  82
CLINTONVILLE   MOSUNNY   84  55  37 NW12      29.98S HX  83
OSHKOSH        PTSUNNY   83  61  47 W10       29.98F HX  83
$$

WIZ032>034-041-042-053>061-252200-
SOUTHWEST WISCONSIN

CITY           SKY/WX    TMP DP  RH WIND       PRES   REMARKS
LA CROSSE      SUNNY     85  62  46 W9        30.02S HX  85
SPARTA         MOSUNNY   83  62  48 W10       30.03F HX  84
VIROQUA        MOSUNNY   81  63  54 N8        30.05F HX  83
BOSCOBEL       MOSUNNY   87  63  44 VRB5      30.02F HX  88
PRAIRIE DU CHI MOSUNNY   83  59  42 NW9       30.02F HX  83
PLATTEVILLE    PTSUNNY   81  65  57 N7        30.04F HX  83
$$

WIZ056-057-062-063-064-067-068-252200-
SOUTH CENTRAL WISCONSIN

CITY           SKY/WX    TMP DP  RH WIND       PRES   REMARKS
REEDSBURG      MOSUNNY   82  64  54 NW8       30.01F HX  83
BARABOO/DELLS  SUNNY     82  59  45 W8        30.02F HX  82
LONE ROCK      SUNNY     84  63  49 W8        30.02F HX  85
MINERAL POINT  MOSUNNY   82  61  47 NW6       30.04F HX  83
MADISON        PTSUNNY   85  64  49 N8        30.00F HX  86
MIDDLETON      MOSUNNY   85  63  47 NW8       30.02F HX  86
WATERTOWN      MOSUNNY   82  64  53 NW9       30.00F HX  83
MONROE         MOSUNNY   82  59  44 NW9       30.02F HX  82
JANESVILLE     MOSUNNY   86  63  45 NW6       30.00F HX  87
$$

WIZ051-052-058>065-066-070>072-252200-
SOUTHEAST WISCONSIN

CITY           SKY/WX    TMP DP  RH WIND       PRES   REMARKS
MILWAUKEE      PTSUNNY   82  64  54 SE9       29.98S HX  83
WAUKESHA       MOSUNNY   82  63  51 NW14      30.01F HX  83
MILWAUKEE/TIMM MOSUNNY   84  57  39 NW9       29.99F HX  83
RACINE         SUNNY     83  64  52 S8        30.00F HX  84
BURLINGTON     SUNNY     85  62  45 W6        29.99F HX  85
KENOSHA        MOSUNNY   84  64  50 E7        29.99F HX  85
FOND DU LAC    MOSUNNY   86  62  44 W12       29.99S HX  86
SHEBOYGAN      SUNNY     82  62  50 W12       29.98S HX  83
WEST BEND      MOSUNNY   84  61  45 NW9       29.99F HX  84
JUNEAU         SUNNY     82  63  53 NW9       30.01F HX  83
$$

LSZ147-162-252200-
LAKE SUPERIOR

STATION/POSITION TIME  TEMP    WIND        PRES    WAVE
                       AIR SEA DIR/SP/G            HT/PER
                 (UTC) (F)     (DEG/KT/KT) (MB)    (FT/S)
W MID LAKE BUOY  2050   64 60  230/ 12/ 12 1013.8F   2/ 4
DEVILS ISLAND    2100   72     230/ 13/ 15 1014.4F
SAXON HARBOR     2000   77      20/  4/  5 1015.6F
$$

LMZ867-665-643>646-252200-
LAKE MICHIGAN

STATION/POSITION TIME  TEMP    WIND        PRES    WAVE
                       AIR SEA DIR/SP/G            HT/PER
                 (UTC) (F)     (DEG/KT/KT) (MB)    (FT/S)
CHAMBERS ISLAND  2000   82     310/  9/ 13 1013.5F
S GREEN BAY BUOY 2100   79 75  290/  8/ 10   N/A
N MID LAKE BUOY  2050   72 71  220/  6/  6 1012.8F   1/ 5
NORTHPORT PIER   2000   80     300/  6/ 11 1013.5S
SISTER BAY       2006   82     330/  8/  9   N/A
ALGOMA LAKESHORE 2013          320/ 11/ 17   N/A
KEWAUNEE LAKESHO 2000   83     300/  7/ 14 1014.0R
SHEBOYGAN LAKESH 2100   82     280/ 10/ 12 1014.8F
PORT WASHINGTON  2000   87     280/  5/ 13 1015.9
ATWATER BUOY     2100   67 56  180/  6/  8 1017.1R
MILWAUKEE LAKESH 2010   72     150/  6/  6   N/A
S MID LAKE BUOY  2050   76 76  190/  6/  6 1015.0F   1
KENOSHA   LAKESH 2100   75     170/  8/  9 1014.9F
$$

TC  - TEMPERATURE IN CELSIUS
VSB - VISIBILITY IN STATUTE MILES
WCI - WIND CHILL INDEX
HX  - HEAT INDEX





USA.gov is the U.S. government's official web portal to all federal, state and local government web resources and services.